Terug naar catalogus

STARLINK-37611

ActiefCommunicatieSSO
NORAD 69034·PAYLOAD·🇺🇸 United States

Gelanceerd May 6, 2026 vanaf Vandenberg Space Force Base

Loading…

Volgende Passages (komende 24 uur)

TLE

VersSource: CelesTrak SupGP

Epoch: Sep 14, 2026, 22:42 UTC

1 69034C 26101K   26257.94631944  .00088838  00000+0  27587-2 0  2576
2 69034  97.2850 111.4771 0001763  91.8510 339.9205 15.33382252    14

Volg STARLINK-37611 in realtime met AllMySat

Download on the App Store